Time,TemperatureF,DewpointF,PressureIn,WindDirection,WindDirectionDegrees,WindSpeedMPH,WindSpeedGustMPH,Humidity,HourlyPrecipIn,Conditions,Clouds,dailyrainin,SoftwareType,DateUTC
2013-03-11 00:00:00,61.4,43.1,29.95,North,357,2.0,8.0,51,0.00,,,0.00,Wunderground v.1.15,2013-03-11 04:00:00,
2013-03-11 00:04:00,61.4,43.1,29.95,SSW,198,2.0,8.0,51,0.00,,,0.00,Wunderground v.1.15,2013-03-11 04:04:00,
2013-03-11 00:09:00,61.4,43.6,29.95,East,92,2.0,2.0,52,0.00,,,0.00,Wunderground v.1.15,2013-03-11 04:09:00,
2013-03-11 00:20:00,61.3,43.5,29.95,WSW,244,1.0,8.0,52,0.00,,,0.00,Wunderground v.1.15,2013-03-11 04:20:00,
2013-03-11 00:25:00,61.4,44.1,29.95,North,2,1.0,8.0,53,0.00,,,0.00,Wunderground v.1.15,2013-03-11 04:25:00,
2013-03-11 00:30:00,61.4,44.1,29.95,NE,53,1.0,1.0,53,0.00,,,0.00,Wunderground v.1.15,2013-03-11 04:30:00,
2013-03-11 00:35:00,61.4,44.1,29.95,SSW,192,1.0,8.0,53,0.00,,,0.00,Wunderground v.1.15,2013-03-11 04:35:00,
2013-03-11 00:44:00,61.4,44.6,29.95,SSE,160,1.0,8.0,54,0.00,,,0.00,Wunderground v.1.15,2013-03-11 04:44:00,
2013-03-11 00:49:00,61.4,44.6,29.94,SSE,150,2.0,2.0,54,0.00,,,0.00,Wunderground v.1.15,2013-03-11 04:49:00,
2013-03-11 00:54:00,61.4,44.6,29.94,WNW,287,2.0,8.0,54,0.00,,,0.00,Wunderground v.1.15,2013-03-11 04:54:00,
2013-03-11 01:00:00,61.5,45.2,29.93,SE,126,2.0,8.0,55,0.00,,,0.00,Wunderground v.1.15,2013-03-11 05:00:00,
2013-03-11 01:10:00,61.5,45.2,29.93,SSE,150,2.0,2.0,55,0.00,,,0.00,Wunderground v.1.15,2013-03-11 05:10:00,
2013-03-11 01:15:00,61.5,45.2,29.93,SW,229,2.0,8.0,55,0.00,,,0.00,Wunderground v.1.15,2013-03-11 05:15:00,
2013-03-11 01:25:00,61.5,45.7,29.93,WSW,243,1.0,8.0,56,0.00,,,0.00,Wunderground v.1.15,2013-03-11 05:25:00,
2013-03-11 01:34:00,61.5,46.1,29.92,ESE,113,1.0,8.0,57,0.00,,,0.00,Wunderground v.1.15,2013-03-11 05:34:00,
2013-03-11 01:39:00,61.5,46.1,29.92,East,98,1.0,8.0,57,0.00,,,0.00,Wunderground v.1.15,2013-03-11 05:39:00,
2013-03-11 01:45:00,61.5,46.1,29.92,NE,46,1.0,8.0,57,0.00,,,0.00,Wunderground v.1.15,2013-03-11 05:45:00,
2013-03-11 01:50:00,61.6,46.2,29.92,SE,142,1.0,8.0,57,0.00,,,0.00,Wunderground v.1.15,2013-03-11 05:50:00,
2013-03-11 01:55:00,61.5,46.6,29.92,West,277,2.0,8.0,58,0.00,,,0.00,Wunderground v.1.15,2013-03-11 05:55:00,
2013-03-11 02:00:00,61.6,46.7,29.92,West,267,2.0,2.0,58,0.00,,,0.00,Wunderground v.1.15,2013-03-11 06:00:00,
2013-03-11 02:09:00,61.5,46.6,29.91,WNW,286,1.0,8.0,58,0.00,,,0.00,Wunderground v.1.15,2013-03-11 06:09:00,
2013-03-11 02:14:00,61.4,46.9,29.91,ESE,103,1.0,8.0,59,0.00,,,0.00,Wunderground v.1.15,2013-03-11 06:14:00,
2013-03-11 02:19:00,61.3,47.3,29.92,South,184,1.0,8.0,60,0.00,,,0.00,Wunderground v.1.15,2013-03-11 06:19:00,
2013-03-11 02:24:00,61.3,47.3,29.92,SE,137,2.0,8.0,60,0.00,,,0.00,Wunderground v.1.15,2013-03-11 06:24:00,
2013-03-11 02:29:00,61.3,47.7,29.92,ESE,119,2.0,8.0,61,0.00,,,0.00,Wunderground v.1.15,2013-03-11 06:29:00,
2013-03-11 02:39:00,61.2,48.1,29.92,West,261,2.0,2.0,62,0.00,,,0.00,Wunderground v.1.15,2013-03-11 06:39:00,
2013-03-11 02:45:00,61.1,48.0,29.92,West,271,2.0,8.0,62,0.00,,,0.00,Wunderground v.1.15,2013-03-11 06:45:00,
2013-03-11 02:50:00,60.9,48.2,29.92,WNW,287,1.0,8.0,63,0.00,,,0.00,Wunderground v.1.15,2013-03-11 06:50:00,
2013-03-11 02:55:00,60.8,48.5,29.91,South,190,2.0,8.0,64,0.00,,,0.00,Wunderground v.1.15,2013-03-11 06:55:00,
2013-03-11 03:00:00,60.6,48.4,29.91,SE,139,2.0,8.0,64,0.00,,,0.00,Wunderground v.1.15,2013-03-11 07:00:00,
2013-03-11 03:09:00,60.4,49.0,29.91,East,93,3.0,8.0,66,0.00,,,0.00,Wunderground v.1.15,2013-03-11 07:09:00,
2013-03-11 03:14:00,60.4,49.0,29.91,SSW,193,3.0,8.0,66,0.00,,,0.00,Wunderground v.1.15,2013-03-11 07:14:00,
2013-03-11 03:19:00,60.3,48.9,29.90,East,81,2.0,8.0,66,0.00,,,0.00,Wunderground v.1.15,2013-03-11 07:19:00,
2013-03-11 03:24:00,60.2,49.2,29.91,ESE,121,2.0,8.0,67,0.00,,,0.00,Wunderground v.1.15,2013-03-11 07:24:00,
2013-03-11 03:29:00,60.1,49.5,29.91,NNW,330,3.0,8.0,68,0.00,,,0.00,Wunderground v.1.15,2013-03-11 07:29:00,
2013-03-11 03:35:00,60.0,49.4,29.91,SW,223,3.0,8.0,68,0.00,,,0.00,Wunderground v.1.15,2013-03-11 07:35:00,
2013-03-11 03:45:00,59.8,49.6,29.90,SSW,202,3.0,8.0,69,0.00,,,0.00,Wunderground v.1.15,2013-03-11 07:45:00,
2013-03-11 03:50:00,59.8,50.0,29.90,SE,131,3.0,8.0,70,0.00,,,0.00,Wunderground v.1.15,2013-03-11 07:50:00,
2013-03-11 03:55:00,59.7,49.9,29.90,West,274,3.0,8.0,70,0.00,,,0.00,Wunderground v.1.15,2013-03-11 07:55:00,
2013-03-11 04:00:00,59.6,49.8,29.90,SE,139,3.0,3.0,70,0.00,,,0.00,Wunderground v.1.15,2013-03-11 08:00:00,
2013-03-11 04:09:00,59.5,50.1,29.89,ESE,113,3.0,3.0,71,0.00,,,0.00,Wunderground v.1.15,2013-03-11 08:09:00,
2013-03-11 04:14:00,59.5,50.1,29.89,SSW,197,3.0,5.0,71,0.00,,,0.00,Wunderground v.1.15,2013-03-11 08:14:00,
2013-03-11 04:19:00,59.4,50.4,29.90,West,271,3.0,3.0,72,0.00,,,0.00,Wunderground v.1.15,2013-03-11 08:19:00,
2013-03-11 04:24:00,59.3,50.3,29.90,ESE,119,3.0,8.0,72,0.00,,,0.00,Wunderground v.1.15,2013-03-11 08:24:00,
2013-03-11 04:30:00,59.3,50.3,29.90,ESE,108,3.0,8.0,72,0.00,,,0.00,Wunderground v.1.15,2013-03-11 08:30:00,
2013-03-11 04:35:00,59.2,50.5,29.90,South,186,3.0,8.0,73,0.00,,,0.00,Wunderground v.1.15,2013-03-11 08:35:00,
2013-03-11 04:44:00,59.0,50.4,29.89,SE,145,3.0,8.0,73,0.00,,,0.00,Wunderground v.1.15,2013-03-11 08:44:00,
2013-03-11 04:49:00,58.9,50.6,29.89,ESE,112,3.0,3.0,74,0.00,,,0.00,Wunderground v.1.15,2013-03-11 08:49:00,
2013-03-11 04:54:00,58.8,50.5,29.89,ESE,102,2.0,6.0,74,0.00,,,0.00,Wunderground v.1.15,2013-03-11 08:54:00,
2013-03-11 05:00:00,58.7,50.4,29.88,WNW,286,2.0,8.0,74,0.00,,,0.00,Wunderground v.1.15,2013-03-11 09:00:00,
2013-03-11 05:10:00,58.5,50.6,29.88,ESE,119,3.0,3.0,75,0.00,,,0.00,Wunderground v.1.15,2013-03-11 09:10:00,
2013-03-11 05:15:00,58.4,50.5,29.88,South,171,4.0,4.0,75,0.00,,,0.00,Wunderground v.1.15,2013-03-11 09:15:00,
2013-03-11 05:25:00,58.3,50.8,29.88,WNW,302,3.0,10.0,76,0.00,,,0.00,Wunderground v.1.15,2013-03-11 09:25:00,
2013-03-11 05:34:00,58.2,50.7,29.87,SW,229,2.0,6.0,76,0.00,,,0.00,Wunderground v.1.15,2013-03-11 09:34:00,
2013-03-11 05:39:00,58.2,50.7,29.87,SE,140,3.0,3.0,76,0.00,,,0.00,Wunderground v.1.15,2013-03-11 09:39:00,
2013-03-11 05:44:00,58.1,50.9,29.88,NW,322,3.0,8.0,77,0.00,,,0.00,Wunderground v.1.15,2013-03-11 09:44:00,
2013-03-11 05:50:00,58.0,50.8,29.87,East,79,3.0,8.0,77,0.00,,,0.00,Wunderground v.1.15,2013-03-11 09:50:00,
2013-03-11 05:55:00,58.0,50.8,29.87,SE,128,3.0,8.0,77,0.00,,,0.00,Wunderground v.1.15,2013-03-11 09:55:00,
2013-03-11 06:00:00,58.0,50.8,29.87,East,95,3.0,3.0,77,0.00,,,0.00,Wunderground v.1.15,2013-03-11 10:00:00,
2013-03-11 06:09:00,57.9,50.7,29.86,NE,45,3.0,8.0,77,0.00,,,0.00,Wunderground v.1.15,2013-03-11 10:09:00,
2013-03-11 06:14:00,57.9,50.7,29.86,SSW,202,3.0,9.0,77,0.00,,,0.00,Wunderground v.1.15,2013-03-11 10:14:00,
2013-03-11 06:19:00,57.9,50.7,29.87,SSE,164,3.0,3.0,77,0.00,,,0.00,Wunderground v.1.15,2013-03-11 10:19:00,
2013-03-11 06:24:00,57.9,51.1,29.86,SSE,152,3.0,6.0,78,0.00,,,0.00,Wunderground v.1.15,2013-03-11 10:24:00,
2013-03-11 06:30:00,57.9,51.1,29.86,SW,230,2.0,8.0,78,0.00,,,0.00,Wunderground v.1.15,2013-03-11 10:30:00,
2013-03-11 06:35:00,57.8,51.0,29.86,ESE,104,2.0,8.0,78,0.00,,,0.00,Wunderground v.1.15,2013-03-11 10:35:00,
2013-03-11 06:40:00,57.8,51.0,29.86,SSE,167,3.0,8.0,78,0.00,,,0.00,Wunderground v.1.15,2013-03-11 10:40:00,
2013-03-11 06:45:00,57.9,51.1,29.87,SSW,193,3.0,8.0,78,0.00,,,0.00,Wunderground v.1.15,2013-03-11 10:45:00,
2013-03-11 06:54:00,57.9,51.1,29.87,SE,135,3.0,8.0,78,0.00,,,0.00,Wunderground v.1.15,2013-03-11 10:54:00,
2013-03-11 07:00:00,57.9,51.4,29.87,SSE,158,3.0,8.0,79,0.00,,,0.00,Wunderground v.1.15,2013-03-11 11:00:00,
2013-03-11 07:09:00,57.9,51.4,29.87,SW,234,3.0,8.0,79,0.00,,,0.00,Wunderground v.1.15,2013-03-11 11:09:00,
2013-03-11 07:15:00,57.9,51.4,29.86,ENE,61,3.0,8.0,79,0.00,,,0.00,Wunderground v.1.15,2013-03-11 11:15:00,
2013-03-11 07:20:00,57.9,51.4,29.86,SSE,154,3.0,3.0,79,0.00,,,0.00,Wunderground v.1.15,2013-03-11 11:20:00,
2013-03-11 07:25:00,57.9,51.4,29.86,SE,129,2.0,5.0,79,0.00,,,0.00,Wunderground v.1.15,2013-03-11 11:25:00,
2013-03-11 07:34:00,57.9,51.4,29.86,East,83,3.0,8.0,79,0.00,,,0.00,Wunderground v.1.15,2013-03-11 11:34:00,
2013-03-11 07:39:00,57.9,51.4,29.86,South,174,3.0,8.0,79,0.00,,,0.00,Wunderground v.1.15,2013-03-11 11:39:00,
2013-03-11 07:49:00,57.9,51.8,29.86,NNW,330,3.0,8.0,80,0.00,,,0.00,Wunderground v.1.15,2013-03-11 11:49:00,
2013-03-11 07:55:00,58.0,51.9,29.85,South,185,3.0,8.0,80,0.00,,,0.00,Wunderground v.1.15,2013-03-11 11:55:00,
2013-03-11 08:00:00,58.0,51.9,29.84,NE,56,3.0,8.0,80,0.00,,,0.00,Wunderground v.1.15,2013-03-11 12:00:00,
2013-03-11 08:09:00,58.0,51.9,29.83,West,277,2.0,2.0,80,0.00,,,0.00,Wunderground v.1.15,2013-03-11 12:09:00,
2013-03-11 08:14:00,58.0,51.9,29.82,SE,124,2.0,4.0,80,0.00,,,0.00,Wunderground v.1.15,2013-03-11 12:14:00,
2013-03-11 08:24:00,57.9,51.8,29.83,ESE,111,2.0,8.0,80,0.00,,,0.00,Wunderground v.1.15,2013-03-11 12:24:00,
2013-03-11 08:29:00,58.0,51.9,29.83,WSW,247,3.0,3.0,80,0.00,,,0.00,Wunderground v.1.15,2013-03-11 12:29:00,
2013-03-11 08:35:00,58.0,51.9,29.82,ESE,123,3.0,8.0,80,0.00,,,0.00,Wunderground v.1.15,2013-03-11 12:35:00,
2013-03-11 08:40:00,58.0,51.9,29.81,ESE,110,3.0,8.0,80,0.00,,,0.00,Wunderground v.1.15,2013-03-11 12:40:00,
2013-03-11 08:45:00,58.0,51.9,29.81,SSW,196,4.0,8.0,80,0.00,,,0.00,Wunderground v.1.15,2013-03-11 12:45:00,
2013-03-11 08:55:00,58.1,52.3,29.81,South,174,3.0,8.0,81,0.00,,,0.00,Wunderground v.1.15,2013-03-11 12:55:00,
2013-03-11 09:00:00,58.0,52.5,29.81,South,189,3.0,8.0,82,0.00,,,0.00,Wunderground v.1.15,2013-03-11 13:00:00,
2013-03-11 09:09:00,57.7,52.6,29.80,NW,306,3.0,3.0,83,0.00,,,0.00,Wunderground v.1.15,2013-03-11 13:09:00,
2013-03-11 09:14:00,57.6,52.5,29.81,South,173,3.0,8.0,83,0.00,,,0.00,Wunderground v.1.15,2013-03-11 13:14:00,
2013-03-11 09:20:00,57.7,52.6,29.81,NW,314,3.0,3.0,83,0.00,,,0.00,Wunderground v.1.15,2013-03-11 13:20:00,
2013-03-11 09:30:00,57.8,52.3,29.81,SE,134,4.0,8.0,82,0.00,,,0.00,Wunderground v.1.15,2013-03-11 13:30:00,
2013-03-11 09:39:00,58.0,52.5,29.82,West,264,3.0,3.0,82,0.00,,,0.00,Wunderground v.1.15,2013-03-11 13:39:00,
2013-03-11 09:44:00,58.1,52.3,29.82,NE,39,3.0,8.0,81,0.00,,,0.00,Wunderground v.1.15,2013-03-11 13:44:00,
2013-03-11 09:49:00,58.2,52.4,29.83,SE,131,4.0,8.0,81,0.00,,,0.00,Wunderground v.1.15,2013-03-11 13:49:00,
2013-03-11 09:54:00,58.3,52.5,29.82,SSW,192,3.0,8.0,81,0.00,,,0.00,Wunderground v.1.15,2013-03-11 13:54:00,
2013-03-11 10:00:00,58.3,52.8,29.83,West,281,3.0,3.0,82,0.00,,,0.00,Wunderground v.1.15,2013-03-11 14:00:00,
2013-03-11 10:10:00,58.1,53.3,29.81,SE,131,2.0,8.0,84,0.00,,,0.00,Wunderground v.1.15,2013-03-11 14:10:00,
2013-03-11 10:15:00,57.9,52.8,29.81,East,83,3.0,8.0,83,0.00,,,0.00,Wunderground v.1.15,2013-03-11 14:15:00,
2013-03-11 10:24:00,57.9,52.8,29.80,SE,141,3.0,8.0,83,0.00,,,0.00,Wunderground v.1.15,2013-03-11 14:24:00,
2013-03-11 10:29:00,58.0,52.9,29.79,East,100,2.0,8.0,83,0.00,,,0.00,Wunderground v.1.15,2013-03-11 14:29:00,
2013-03-11 10:34:00,58.1,53.0,29.80,East,80,2.0,8.0,83,0.00,,,0.00,Wunderground v.1.15,2013-03-11 14:34:00,
2013-03-11 10:39:00,58.3,52.8,29.80,SSE,167,2.0,8.0,82,0.00,,,0.00,Wunderground v.1.15,2013-03-11 14:39:00,
2013-03-11 10:45:00,58.4,52.9,29.80,West,274,3.0,8.0,82,0.00,,,0.00,Wunderground v.1.15,2013-03-11 14:45:00,
2013-03-11 10:50:00,58.5,53.0,29.80,West,275,3.0,8.0,82,0.00,,,0.00,Wunderground v.1.15,2013-03-11 14:50:00,
2013-03-11 10:55:00,58.7,52.9,29.81,WNW,296,4.0,8.0,81,0.00,,,0.00,Wunderground v.1.15,2013-03-11 14:55:00,
2013-03-11 11:00:00,58.7,52.9,29.81,SW,235,3.0,3.0,81,0.00,,,0.00,Wunderground v.1.15,2013-03-11 15:00:00,
2013-03-11 11:09:00,58.9,53.1,29.80,SSE,165,3.0,8.0,81,0.00,,,0.00,Wunderground v.1.15,2013-03-11 15:09:00,
2013-03-11 11:14:00,59.0,53.2,29.80,SSE,160,2.0,8.0,81,0.00,,,0.01,Wunderground v.1.15,2013-03-11 15:14:00,
2013-03-11 11:19:00,58.8,53.6,29.81,SE,132,3.0,8.0,83,0.00,,,0.01,Wunderground v.1.15,2013-03-11 15:19:00,
2013-03-11 11:24:00,58.6,53.8,29.81,SE,129,3.0,8.0,84,0.00,,,0.01,Wunderground v.1.15,2013-03-11 15:24:00,
2013-03-11 11:29:00,58.3,53.5,29.81,North,7,2.0,2.0,84,0.04,,,0.02,Wunderground v.1.15,2013-03-11 15:29:00,
2013-03-11 11:35:00,58.2,54.0,29.81,SE,132,1.0,3.0,86,0.04,,,0.02,Wunderground v.1.15,2013-03-11 15:35:00,
2013-03-11 11:40:00,58.0,53.8,29.81,SSW,204,1.0,8.0,86,0.04,,,0.02,Wunderground v.1.15,2013-03-11 15:40:00,
2013-03-11 11:45:00,57.8,53.6,29.82,WSW,247,1.0,8.0,86,0.00,,,0.02,Wunderground v.1.15,2013-03-11 15:45:00,
2013-03-11 11:54:00,57.5,54.0,29.81,West,266,1.0,8.0,88,0.08,,,0.04,Wunderground v.1.15,2013-03-11 15:54:00,
2013-03-11 12:00:00,57.4,54.2,29.83,West,266,1.0,8.0,89,0.19,,,0.06,Wunderground v.1.15,2013-03-11 16:00:00,
2013-03-11 12:10:00,56.8,54.2,29.82,SE,132,2.0,2.0,91,0.47,,,0.16,Wunderground v.1.15,2013-03-11 16:10:00,
2013-03-11 12:15:00,56.6,54.0,29.82,South,175,1.0,8.0,91,0.34,,,0.20,Wunderground v.1.15,2013-03-11 16:15:00,
2013-03-11 12:20:00,56.4,54.1,29.82,ESE,113,1.0,1.0,92,0.55,,,0.23,Wunderground v.1.15,2013-03-11 16:20:00,
2013-03-11 12:29:00,56.1,54.1,29.82,SE,144,0.0,8.0,93,0.36,,,0.29,Wunderground v.1.15,2013-03-11 16:29:00,
2013-03-11 12:34:00,56.0,54.0,29.80,WSW,254,0.0,8.0,93,0.33,,,0.31,Wunderground v.1.15,2013-03-11 16:34:00,
2013-03-11 12:39:00,55.9,53.9,29.80,SSW,192,0.0,8.0,93,0.27,,,0.33,Wunderground v.1.15,2013-03-11 16:39:00,
2013-03-11 12:44:00,55.8,54.1,29.80,SSE,161,0.0,8.0,94,0.27,,,0.35,Wunderground v.1.15,2013-03-11 16:44:00,
2013-03-11 12:50:00,55.8,54.1,29.79,South,178,1.0,1.0,94,0.33,,,0.36,Wunderground v.1.15,2013-03-11 16:50:00,
2013-03-11 12:55:00,55.8,54.1,29.79,SSE,163,1.0,8.0,94,0.32,,,0.38,Wunderground v.1.15,2013-03-11 16:55:00,
2013-03-11 13:00:00,55.8,54.1,29.79,West,271,0.0,8.0,94,0.19,,,0.40,Wunderground v.1.15,2013-03-11 17:00:00,
2013-03-11 13:09:00,55.7,54.0,29.78,South,175,0.0,8.0,94,0.18,,,0.43,Wunderground v.1.15,2013-03-11 17:09:00,
2013-03-11 13:14:00,55.7,54.3,29.78,WSW,238,0.0,8.0,95,0.12,,,0.44,Wunderground v.1.15,2013-03-11 17:14:00,
2013-03-11 13:19:00,55.7,54.3,29.78,SW,214,0.0,8.0,95,0.12,,,0.45,Wunderground v.1.15,2013-03-11 17:19:00,
2013-03-11 13:24:00,55.7,54.3,29.78,WSW,246,0.0,8.0,95,0.07,,,0.45,Wunderground v.1.15,2013-03-11 17:24:00,
2013-03-11 13:29:00,55.6,54.2,29.78,SSW,212,1.0,1.0,95,0.25,,,0.47,Wunderground v.1.15,2013-03-11 17:29:00,
2013-03-11 13:34:00,55.5,54.1,29.80,ESE,113,2.0,4.0,95,0.51,,,0.50,Wunderground v.1.15,2013-03-11 17:34:00,
2013-03-11 13:40:00,55.5,54.1,29.79,North,11,3.0,3.0,95,0.34,,,0.53,Wunderground v.1.15,2013-03-11 17:40:00,
2013-03-11 13:45:00,55.5,54.1,29.80,WNW,292,2.0,4.0,95,0.24,,,0.56,Wunderground v.1.15,2013-03-11 17:45:00,
2013-03-11 13:54:00,55.5,54.1,29.80,NNW,336,1.0,8.0,95,0.34,,,0.62,Wunderground v.1.15,2013-03-11 17:54:00,
2013-03-11 14:00:00,55.5,54.1,29.80,East,85,1.0,8.0,95,0.30,,,0.65,Wunderground v.1.15,2013-03-11 18:00:00,
2013-03-11 14:09:00,55.3,53.9,29.80,WSW,253,1.0,1.0,95,0.44,,,0.71,Wunderground v.1.15,2013-03-11 18:09:00,
2013-03-11 14:14:00,55.2,53.8,29.79,ESE,121,1.0,2.0,95,0.23,,,0.74,Wunderground v.1.15,2013-03-11 18:14:00,
2013-03-11 14:20:00,55.0,53.3,29.79,SSW,201,1.0,8.0,94,0.17,,,0.75,Wunderground v.1.15,2013-03-11 18:20:00,
2013-03-11 14:25:00,54.9,53.2,29.78,SE,135,1.0,8.0,94,0.07,,,0.76,Wunderground v.1.15,2013-03-11 18:25:00,
2013-03-11 14:34:00,54.8,53.1,29.78,West,262,1.0,8.0,94,0.08,,,0.77,Wunderground v.1.15,2013-03-11 18:34:00,
2013-03-11 14:44:00,54.8,53.1,29.78,SW,220,0.0,8.0,94,0.07,,,0.78,Wunderground v.1.15,2013-03-11 18:44:00,
2013-03-11 14:49:00,54.8,53.1,29.78,SW,220,0.0,8.0,94,0.13,,,0.79,Wunderground v.1.15,2013-03-11 18:49:00,
2013-03-11 14:54:00,54.8,53.1,29.78,SW,220,0.0,8.0,94,0.08,,,0.80,Wunderground v.1.15,2013-03-11 18:54:00,
2013-03-11 15:00:00,54.7,53.0,29.77,SW,220,0.0,8.0,94,0.16,,,0.81,Wunderground v.1.15,2013-03-11 19:00:00,
2013-03-11 15:10:00,54.6,53.2,29.77,SSE,162,0.0,8.0,95,0.15,,,0.84,Wunderground v.1.15,2013-03-11 19:10:00,
2013-03-11 15:15:00,54.6,53.2,29.76,West,279,0.0,8.0,95,0.20,,,0.85,Wunderground v.1.15,2013-03-11 19:15:00,
2013-03-11 15:20:00,54.6,53.2,29.76,SE,142,0.0,8.0,95,0.10,,,0.86,Wunderground v.1.15,2013-03-11 19:20:00,
2013-03-11 15:29:00,54.6,53.2,29.76,SSW,194,0.0,8.0,95,0.26,,,0.89,Wunderground v.1.15,2013-03-11 19:29:00,
2013-03-11 15:34:00,54.6,53.2,29.77,SSW,207,1.0,8.0,95,0.23,,,0.91,Wunderground v.1.15,2013-03-11 19:34:00,
2013-03-11 15:39:00,54.5,53.1,29.77,SE,132,1.0,8.0,95,0.32,,,0.92,Wunderground v.1.15,2013-03-11 19:39:00,
2013-03-11 15:49:00,54.3,52.9,29.78,SSW,208,1.0,1.0,95,0.20,,,0.96,Wunderground v.1.15,2013-03-11 19:49:00,
2013-03-11 15:54:00,54.2,52.8,29.77,SSW,194,1.0,8.0,95,0.20,,,0.98,Wunderground v.1.15,2013-03-11 19:54:00,
2013-03-11 16:00:00,54.1,52.7,29.77,South,172,1.0,1.0,95,0.17,,,1.00,Wunderground v.1.15,2013-03-11 20:00:00,
2013-03-11 16:10:00,54.0,52.6,29.75,WSW,248,1.0,8.0,95,0.42,,,1.05,Wunderground v.1.15,2013-03-11 20:10:00,
2013-03-11 16:19:00,53.8,52.4,29.74,ENE,57,1.0,1.0,95,0.27,,,1.09,Wunderground v.1.15,2013-03-11 20:19:00,
2013-03-11 16:24:00,53.7,52.3,29.73,NE,56,1.0,8.0,95,0.10,,,1.09,Wunderground v.1.15,2013-03-11 20:24:00,
2013-03-11 16:29:00,53.7,52.3,29.73,ESE,103,1.0,8.0,95,0.06,,,1.10,Wunderground v.1.15,2013-03-11 20:29:00,
2013-03-11 16:34:00,53.6,52.2,29.72,East,84,2.0,8.0,95,0.15,,,1.11,Wunderground v.1.15,2013-03-11 20:34:00,
2013-03-11 16:39:00,53.5,52.1,29.71,South,171,2.0,2.0,95,0.08,,,1.11,Wunderground v.1.15,2013-03-11 20:39:00,
2013-03-11 16:45:00,53.5,52.1,29.71,East,95,2.0,5.0,95,0.22,,,1.13,Wunderground v.1.15,2013-03-11 20:45:00,
2013-03-11 16:50:00,53.4,52.0,29.65,NE,44,4.0,12.0,95,0.09,,,1.13,Wunderground v.1.15,2013-03-11 20:50:00,
2013-03-11 16:55:00,53.4,52.0,29.68,NNW,342,4.0,12.0,95,0.06,,,1.14,Wunderground v.1.15,2013-03-11 20:55:00,
2013-03-11 17:00:00,53.6,52.2,29.72,West,275,3.0,8.0,95,0.06,,,1.14,Wunderground v.1.15,2013-03-11 21:00:00,
2013-03-11 17:09:00,53.9,52.8,29.75,WNW,283,4.0,8.0,96,0.04,,,1.14,Wunderground v.1.15,2013-03-11 21:09:00,
2013-03-11 17:14:00,53.9,52.8,29.75,SW,227,3.0,8.0,96,0.00,,,1.14,Wunderground v.1.15,2013-03-11 21:14:00,
2013-03-11 17:19:00,53.9,52.8,29.74,SSW,200,3.0,3.0,96,0.00,,,1.14,Wunderground v.1.15,2013-03-11 21:19:00,
2013-03-11 17:24:00,54.0,52.9,29.73,WSW,252,1.0,8.0,96,0.00,,,1.14,Wunderground v.1.15,2013-03-11 21:24:00,
2013-03-11 17:35:00,54.0,52.9,29.75,ENE,77,0.0,8.0,96,0.00,,,1.14,Wunderground v.1.15,2013-03-11 21:35:00,
2013-03-11 17:40:00,54.0,52.9,29.74,SSE,168,0.0,8.0,96,0.00,,,1.14,Wunderground v.1.15,2013-03-11 21:40:00,
2013-03-11 17:45:00,54.0,52.9,29.73,NNW,329,0.0,8.0,96,0.00,,,1.14,Wunderground v.1.15,2013-03-11 21:45:00,
2013-03-11 17:54:00,54.1,53.0,29.74,SSE,158,0.0,8.0,96,0.00,,,1.14,Wunderground v.1.15,2013-03-11 21:54:00,
2013-03-11 18:00:00,54.1,53.0,29.75,SSE,156,0.0,8.0,96,0.00,,,1.14,Wunderground v.1.15,2013-03-11 22:00:00,
2013-03-11 18:09:00,54.1,53.0,29.75,South,176,0.0,8.0,96,0.00,,,1.14,Wunderground v.1.15,2013-03-11 22:09:00,
2013-03-11 18:14:00,54.0,52.6,29.76,WSW,246,0.0,8.0,95,0.00,,,1.14,Wunderground v.1.15,2013-03-11 22:14:00,
2013-03-11 18:20:00,54.0,52.6,29.76,SE,128,1.0,8.0,95,0.00,,,1.14,Wunderground v.1.15,2013-03-11 22:20:00,
2013-03-11 18:29:00,53.7,52.3,29.77,West,262,2.0,8.0,95,0.00,,,1.14,Wunderground v.1.15,2013-03-11 22:29:00,
2013-03-11 18:34:00,53.4,51.4,29.77,West,278,3.0,8.0,93,0.00,,,1.14,Wunderground v.1.15,2013-03-11 22:34:00,
2013-03-11 18:39:00,53.1,50.8,29.77,West,266,3.0,3.0,92,0.00,,,1.14,Wunderground v.1.15,2013-03-11 22:39:00,
2013-03-11 18:44:00,52.8,50.5,29.77,WSW,249,2.0,8.0,92,0.00,,,1.14,Wunderground v.1.15,2013-03-11 22:44:00,
2013-03-11 18:50:00,52.6,50.0,29.77,WSW,253,1.0,1.0,91,0.00,,,1.14,Wunderground v.1.15,2013-03-11 22:50:00,
2013-03-11 18:55:00,52.4,49.8,29.77,West,273,0.0,8.0,91,0.00,,,1.14,Wunderground v.1.15,2013-03-11 22:55:00,
2013-03-11 19:00:00,52.2,49.9,29.77,WNW,283,0.0,8.0,92,0.00,,,1.14,Wunderground v.1.15,2013-03-11 23:00:00,
2013-03-11 19:09:00,51.9,49.9,29.77,WNW,283,1.0,8.0,93,0.00,,,1.14,Wunderground v.1.15,2013-03-11 23:09:00,
2013-03-11 19:14:00,51.9,49.9,29.77,West,279,1.0,8.0,93,0.00,,,1.14,Wunderground v.1.15,2013-03-11 23:14:00,
2013-03-11 19:19:00,51.8,49.5,29.77,West,279,1.0,1.0,92,0.00,,,1.14,Wunderground v.1.15,2013-03-11 23:19:00,
2013-03-11 19:25:00,51.8,49.8,29.77,SW,236,0.0,8.0,93,0.00,,,1.14,Wunderground v.1.15,2013-03-11 23:25:00,
2013-03-11 19:30:00,51.7,49.5,29.77,WNW,285,1.0,1.0,92,0.00,,,1.14,Wunderground v.1.15,2013-03-11 23:30:00,
2013-03-11 19:39:00,51.5,49.3,29.78,WSW,254,1.0,8.0,92,0.00,,,1.14,Wunderground v.1.15,2013-03-11 23:39:00,
2013-03-11 19:44:00,51.4,49.2,29.78,WSW,254,1.0,8.0,92,0.00,,,1.14,Wunderground v.1.15,2013-03-11 23:44:00,
2013-03-11 19:54:00,51.2,49.0,29.79,WSW,255,0.0,8.0,92,0.00,,,1.14,Wunderground v.1.15,2013-03-11 23:54:00,
2013-03-11 20:00:00,50.9,48.4,29.79,NW,304,2.0,2.0,91,0.00,,,1.14,Wunderground v.1.15,2013-03-12 00:00:00,
2013-03-11 20:10:00,50.5,48.0,29.79,SE,137,0.0,8.0,91,0.00,,,1.14,Wunderground v.1.15,2013-03-12 00:10:00,
2013-03-11 20:15:00,50.3,47.5,29.80,WNW,293,1.0,8.0,90,0.00,,,1.14,Wunderground v.1.15,2013-03-12 00:15:00,
2013-03-11 20:25:00,49.8,47.3,29.79,WSW,239,1.0,2.0,91,0.00,,,1.14,Wunderground v.1.15,2013-03-12 00:25:00,
2013-03-11 20:34:00,49.3,46.5,29.81,WNW,300,1.0,6.0,90,0.00,,,1.14,Wunderground v.1.15,2013-03-12 00:34:00,
2013-03-11 20:39:00,49.1,46.3,29.81,West,281,2.0,2.0,90,0.00,,,1.14,Wunderground v.1.15,2013-03-12 00:39:00,
2013-03-11 20:44:00,49.0,46.5,29.81,West,265,2.0,8.0,91,0.00,,,1.14,Wunderground v.1.15,2013-03-12 00:44:00,
2013-03-11 20:50:00,48.8,46.0,29.82,WSW,249,1.0,8.0,90,0.00,,,1.14,Wunderground v.1.15,2013-03-12 00:50:00,
2013-03-11 21:00:00,48.2,44.2,29.82,WNW,299,3.0,3.0,86,0.00,,,1.14,Wunderground v.1.15,2013-03-12 01:00:00,
2013-03-11 21:09:00,47.8,44.1,29.83,WNW,284,1.0,8.0,87,0.00,,,1.14,Wunderground v.1.15,2013-03-12 01:09:00,
2013-03-11 21:14:00,47.6,44.2,29.83,WNW,284,1.0,8.0,88,0.00,,,1.14,Wunderground v.1.15,2013-03-12 01:14:00,
2013-03-11 21:19:00,47.2,43.2,29.83,NW,320,1.0,8.0,86,0.00,,,1.14,Wunderground v.1.15,2013-03-12 01:19:00,
2013-03-11 21:25:00,46.9,43.5,29.83,WNW,283,2.0,8.0,88,0.00,,,1.14,Wunderground v.1.15,2013-03-12 01:25:00,
2013-03-11 21:29:00,46.5,42.8,29.83,SW,229,2.0,8.0,87,0.00,,,1.14,Wunderground v.1.15,2013-03-12 01:29:00,
2013-03-11 21:35:00,46.3,43.2,29.83,WSW,241,1.0,8.0,89,0.00,,,1.14,Wunderground v.1.15,2013-03-12 01:35:00,
2013-03-11 21:40:00,46.1,42.7,29.83,WSW,241,0.0,8.0,88,0.00,,,1.14,Wunderground v.1.15,2013-03-12 01:40:00,
2013-03-11 21:49:00,45.6,42.3,29.83,West,266,0.0,8.0,88,0.00,,,1.14,Wunderground v.1.15,2013-03-12 01:49:00,
2013-03-11 21:54:00,45.4,42.1,29.84,WSW,258,1.0,8.0,88,0.00,,,1.14,Wunderground v.1.15,2013-03-12 01:54:00,
2013-03-11 22:00:00,45.1,42.1,29.83,WSW,258,0.0,8.0,89,0.00,,,1.14,Wunderground v.1.15,2013-03-12 02:00:00,
2013-03-11 22:09:00,44.7,41.7,29.84,West,279,0.0,8.0,89,0.00,,,1.14,Wunderground v.1.15,2013-03-12 02:09:00,
2013-03-11 22:15:00,44.5,41.5,29.84,WSW,242,0.0,8.0,89,0.00,,,1.14,Wunderground v.1.15,2013-03-12 02:15:00,
2013-03-11 22:20:00,44.2,41.2,29.84,WSW,248,1.0,8.0,89,0.00,,,1.14,Wunderground v.1.15,2013-03-12 02:20:00,
2013-03-11 22:29:00,43.9,40.9,29.85,WSW,244,2.0,2.0,89,0.00,,,1.14,Wunderground v.1.15,2013-03-12 02:29:00,
2013-03-11 22:34:00,43.8,40.8,29.85,WSW,244,0.0,8.0,89,0.00,,,1.14,Wunderground v.1.15,2013-03-12 02:34:00,
2013-03-11 22:39:00,43.6,40.6,29.86,WSW,244,0.0,8.0,89,0.00,,,1.14,Wunderground v.1.15,2013-03-12 02:39:00,
2013-03-11 22:44:00,43.4,40.4,29.86,WSW,244,0.0,8.0,89,0.00,,,1.14,Wunderground v.1.15,2013-03-12 02:44:00,
2013-03-11 22:49:00,43.1,40.4,29.86,WSW,244,0.0,8.0,90,0.00,,,1.14,Wunderground v.1.15,2013-03-12 02:49:00,
2013-03-11 22:55:00,42.9,40.2,29.86,West,269,0.0,8.0,90,0.00,,,1.14,Wunderground v.1.15,2013-03-12 02:55:00,
2013-03-11 23:00:00,42.6,39.9,29.86,West,279,1.0,8.0,90,0.00,,,1.14,Wunderground v.1.15,2013-03-12 03:00:00,
2013-03-11 23:09:00,42.3,39.6,29.87,SSW,195,1.0,1.0,90,0.00,,,1.14,Wunderground v.1.15,2013-03-12 03:09:00,
2013-03-11 23:19:00,42.1,39.4,29.87,West,269,0.0,8.0,90,0.00,,,1.14,Wunderground v.1.15,2013-03-12 03:19:00,
2013-03-11 23:24:00,42.0,39.3,29.88,West,269,0.0,8.0,90,0.00,,,1.14,Wunderground v.1.15,2013-03-12 03:24:00,
2013-03-11 23:29:00,41.7,39.0,29.88,West,269,0.0,8.0,90,0.00,,,1.14,Wunderground v.1.15,2013-03-12 03:29:00,
2013-03-11 23:34:00,41.5,38.8,29.88,West,262,1.0,8.0,90,0.00,,,1.14,Wunderground v.1.15,2013-03-12 03:34:00,
2013-03-11 23:39:00,41.4,38.7,29.88,West,262,1.0,8.0,90,0.00,,,1.14,Wunderground v.1.15,2013-03-12 03:39:00,
2013-03-11 23:45:00,41.3,38.3,29.89,West,275,1.0,8.0,89,0.00,,,1.14,Wunderground v.1.15,2013-03-12 03:45:00,
2013-03-11 23:50:00,41.3,38.6,29.89,West,275,1.0,1.0,90,0.00,,,1.14,Wunderground v.1.15,2013-03-12 03:50:00,
2013-03-11 23:55:00,41.2,38.2,29.89,WSW,244,1.0,8.0,89,0.00,,,1.14,Wunderground v.1.15,2013-03-12 03:55:00,